Wind_Speed
22 22 24 20 14 13 12 13 13 10 11 7 5 6 7 6 5 7 14 13 14 17 12 10 10 7 8 10 8 8 10 10 7 9 8 8 10 13 13 14 13 14 15 17
24 29 23 20 16 14 14 15 13 10 9 8 10 13 11 14 6 10 11 14 20 21 14 12 13 10 10 10 10 11 12 13 12 10 9 10 10 11 13 15 15 16 17 17
26 13 26 24 19 20 17 17 15 13 14 12 14 17 5 10 14 15 15 17 22 23 17 14 14 12 11 11 11 11 12 12 13 13 12 11 10 10 10 12 15 13 16 17
27 29 11 16 18 17 17 11 18 16 7 6 10 9 20 7 10 12 15 17 20 22 20 19 17 12 9 11 11 10 12 13 13 12 11 13 10 12 13 12 13 14 16 18
18 15 26 26 18 13 15 16 11 6 6 10 10 6 8 12 7 3 4 13 13 19 21 22 20 14 12 9 7 8 8 12 13 13 12 12 11 13 14 14 14 14 16 19
23 8 12 21 14 10 9 14 6 3 2 4 3 3 8 5 9 6 5 5 10 13 21 22 22 21 20 13 11 10 7 7 12 13 11 12 12 13 15 13 15 16 16 15
17 23 15 16 15 14 10 9 2 1 1 5 7 5 11 12 6 4 5 3 11 13 18 24 25 20 19 17 14 10 9 7 8 10 11 11 12 12 13 14 15 16 18 17
17 15 23 19 22 16 15 12 7 5 4 6 6 6 10 10 6 1 5 5 12 18 19 23 20 20 18 23 16 12 11 10 7 7 10 12 12 12 13 14 16 16 16 18
8 10 16 23 22 20 16 11 13 6 3 5 7 17 19 8 7 5 2 6 2 11 17 19 21 17 17 18 16 20 10 13 15 13 10 13 15 13 12 13 15 16 17 17
19 14 12 20 25 20 18 12 6 8 5 7 4 8 11 9 4 8 2 0 3 8 16 20 20 17 16 16 17 16 15 17 19 16 15 14 15 16 15 15 14 13 16 16
27 20 9 14 23 26 25 18 16 10 5 4 4 7 14 14 6 7 2 2 6 4 11 17 19 17 19 19 21 20 18 18 20 19 14 14 14 16 18 17 17 16 16 14
19 15 23 24 13 13 11 19 24 18 10 8 7 11 8 13 6 8 3 5 5 4 9 13 19 20 21 24 23 23 22 19 17 21 19 15 16 17 19 18 18 18 17 17
16 17 14 11 15 18 15 19 18 23 12 11 9 10 12 10 5 8 4 4 2 6 6 5 11 15 17 19 16 17 19 16 15 19 22 23 18 17 16 17 17 17 18 20
7 17 18 16 14 13 15 15 18 17 14 15 17 18 16 10 6 7 7 6 8 8 7 7 8 12 13 15 18 15 13 11 10 10 15 17 16 18 20 19 19 18 19 20
10 15 20 24 24 24 20 19 19 18 15 16 16 16 12 9 4 9 11 11 11 11 8 7 8 11 13 14 14 14 14 14 15 15 11 15 17 22 29 25 27 29 26 25
18 17 16 21 22 23 24 23 23 21 21 19 17 13 9 13 12 12 15 13 9 6 9 8 7 7 8 9 10 11 12 13 12 13 15 17 18 18 20 25 26 27 30 28
13 18 20 18 20 20 11 25 25 23 21 22 22 15 14 15 14 15 17 14 9 7 6 7 6 5 6 6 6 6 5 5 5 7 10 12 14 16 18 23 26 29 27 25
19 14 13 13 17 17 11 15 24 29 26 26 21 16 14 15 16 14 15 16 13 12 7 5 4 4 2 7 9 7 6 6 6 9 12 15 16 18 19 21 22 21 22 24
26 22 12 15 15 16 18 7 13 32 31 22 17 17 16 19 18 18 20 19 14 12 10 6 3 4 1 4 5 8 9 10 11 15 18 19 22 24 24 24 24 25 24 22
29 26 19 17 20 16 24 18 6 17 19 18 14 12 18 15 22 19 22 22 21 15 10 8 4 4 3 2 1 4 8 12 17 17 16 17 17 17 20 23 25 27 27 27
22 29 39 27 21 33 25 22 19 13 15 16 15 15 20 20 21 11 16 21 21 16 10 9 7 6 6 6 8 10 13 16 15 14 14 16 17 16 17 18 21 23 25 26
8 16 23 28 30 22 21 29 39 26 15 18 15 12 13 19 19 14 16 17 21 14 11 12 10 8 7 10 12 14 14 15 15 16 16 15 14 16 16 16 18 20 23 25
16 5 16 19 32 18 20 23 31 28 14 10 15 14 15 15 21 14 15 20 18 15 12 12 10 11 10 11 12 11 13 13 14 15 17 17 18 17 16 16 17 17 19 20
26 8 6 8 22 29 28 26 28 32 24 13 11 14 18 16 19 15 16 15 17 17 16 13 13 11 11 12 11 9 10 11 12 14 16 17 17 18 18 17 17 18 20 19
24 25 6 0 9 20 27 31 30 37 37 23 14 12 17 19 18 19 17 17 16 18 17 17 12 10 11 10 7 7 10 14 16 17 17 18 18 18 18 18 18 18 18 19
21 33 26 8 15 10 10 17 24 27 27 31 25 19 20 23 18 19 19 17 18 20 17 11 9 9 8 6 8 11 15 16 17 19 20 21 21 20 20 20 19 19 19 18
Wind_Direction
215 221 238 248 259 282 298 314 325 316 331 290 297 271 281 250 224 246 219 215 203 167 178 190 181 186 176 162 154 173 156 145 146 131 139 152 148 159 162 171 183 189 196 199
215 228 237 248 256 268 287 301 315 316 308 320 308 309 282 268 247 251 249 211 195 186 187 194 199 189 168 159 157 164 155 154 161 172 175 179 182 172 175 186 186 195 201 205
220 236 240 242 256 263 274 285 308 303 298 300 314 319 325 302 273 240 243 229 210 207 204 197 206 189 177 171 168 178 169 163 163 175 176 184 188 191 191 200 201 204 212 215
230 229 234 223 249 252 273 302 309 296 273 288 304 299 308 318 312 266 243 241 227 205 194 197 196 184 171 171 184 189 185 174 170 169 181 185 197 204 201 203 204 216 217 219
224 240 234 235 236 251 273 299 318 269 242 296 283 274 296 321 326 348 274 239 240 217 200 196 197 161 165 179 193 193 207 197 185 179 176 181 190 194 193 203 208 208 213 221
234 231 225 220 242 258 268 289 327 325 273 265 283 235 290 353 337 332 334 247 208 217 207 200 199 198 202 174 193 201 207 196 199 203 189 185 184 198 202 207 210 213 214 218
235 233 219 221 236 250 247 249 272 215 197 274 274 263 279 309 331 8 357 311 190 187 198 202 203 201 214 190 201 206 194 189 180 195 207 200 199 203 204 208 206 210 215 219
226 234 229 221 225 227 247 221 229 255 226 281 277 242 293 295 294 83 35 36 187 181 182 191 197 202 207 200 201 203 200 205 193 199 215 215 214 210 214 216 217 218 215 217
220 233 224 226 236 237 230 219 233 243 240 275 269 281 304 336 222 181 89 46 93 202 186 181 188 193 206 201 207 228 216 212 225 222 230 224 219 219 215 217 222 221 217 223
243 261 249 223 225 223 229 248 217 222 230 257 246 285 308 341 246 182 175 296 307 215 194 180 184 193 206 211 210 209 225 230 222 217 222 224 226 224 222 219 213 220 224 225
235 232 249 207 212 224 224 216 218 237 209 253 283 302 325 336 163 183 218 290 284 246 194 192 186 190 201 207 214 212 218 219 211 220 218 226 233 232 231 230 227 222 230 238
217 228 243 242 222 201 255 238 231 224 222 231 260 281 309 320 208 197 248 301 294 209 169 184 193 195 202 202 210 214 208 214 211 219 221 225 231 238 239 239 241 238 234 233
231 221 233 247 241 246 254 245 227 222 233 222 250 276 282 307 291 202 231 281 148 175 177 170 175 188 182 175 182 188 200 202 217 227 230 237 243 240 246 246 246 246 247 246
248 231 224 231 234 228 226 236 220 223 225 241 247 268 273 276 272 208 206 154 120 145 170 166 164 171 176 185 192 191 205 217 228 238 232 235 242 240 242 243 241 243 246 248
241 249 244 246 251 258 252 247 246 224 229 225 251 254 247 245 214 211 208 178 118 100 122 154 174 181 184 192 203 215 226 236 239 234 237 240 256 250 235 241 248 261 257 257
249 249 260 252 253 260 258 247 240 251 237 232 227 229 236 210 205 208 209 190 179 144 101 95 124 155 182 195 209 221 233 242 243 246 246 249 256 254 237 245 254 257 256 270
229 235 245 246 254 255 254 251 236 228 231 220 208 238 241 230 233 212 202 186 168 177 135 97 98 155 172 182 183 191 201 206 221 241 254 260 264 264 257 257 265 264 265 267
232 217 226 227 231 236 249 263 238 234 227 225 230 244 240 232 224 205 190 177 173 164 149 126 98 156 219 207 207 203 211 228 252 269 275 276 276 274 270 267 267 267 264 269
227 233 229 218 229 242 220 273 259 214 222 216 223 219 230 215 201 201 189 179 181 167 163 168 158 174 156 162 188 215 233 249 267 283 283 279 275 271 269 267 269 272 273 274
229 223 231 229 228 234 225 228 352 225 235 219 218 225 221 216 206 207 200 190 186 186 183 191 171 173 196 209 258 264 260 263 282 285 283 287 289 275 266 264 264 264 266 266
215 219 222 235 238 242 236 237 265 230 232 219 228 235 228 224 215 212 190 197 194 199 198 211 187 194 233 264 281 294 292 291 300 301 298 295 299 294 283 275 270 267 265 263
293 210 212 217 225 237 224 225 215 225 235 210 223 237 231 219 191 193 195 197 198 201 216 218 220 230 243 261 285 302 298 297 302 309 309 306 300 290 288 284 283 275 265 264
239 223 218 215 219 217 215 209 204 203 247 243 219 212 176 172 186 191 174 179 186 200 212 202 208 229 246 262 287 294 301 306 309 309 308 310 311 308 298 290 283 280 276 269
220 254 262 204 206 211 215 227 212 213 225 220 209 205 199 190 192 191 194 178 187 201 203 205 218 240 249 274 285 308 321 326 321 315 313 313 311 308 307 302 291 282 275 271
232 229 279 56 184 206 221 226 224 217 221 239 228 234 204 201 196 202 201 198 196 193 200 212 228 244 260 270 277 295 321 334 336 335 330 322 315 311 309 305 301 290 280 270
244 239 246 227 144 166 177 211 218 218 226 244 245 240 226 204 205 206 194 194 197 200 209 207 215 233 244 277 292 303 316 326 330 331 329 323 321 314 307 304 301 299 288 270
Height
3168 3171 3170 3173 3174 3175 3174 3173 3172 3171 3171 3170 3169 3169 3169 3169 3169 3169 3171 3173 3177 3180 3181 3182 3184 3184 3185 3184 3186 3187 3188 3188 3190 3192 3193 3195 3199 3202 3203 3205 3208 3211 3213 3217
3167 3165 3170 3171 3172 3173 3173 3172 3171 3171 3170 3170 3168 3167 3167 3165 3166 3165 3167 3169 3174 3177 3179 3180 3182 3183 3184 3184 3185 3187 3188 3189 3191 3193 3194 3197 3199 3202 3205 3208 3210 3212 3214 3216
3163 3166 3166 3169 3170 3171 3171 3170 3171 3171 3169 3168 3167 3163 3162 3163 3162 3163 3162 3164 3168 3172 3176 3178 3180 3182 3183 3184 3185 3187 3188 3190 3191 3193 3195 3196 3199 3201 3204 3207 3210 3212 3214 3215
3162 3164 3165 3166 3167 3169 3168 3170 3169 3167 3168 3169 3167 3164 3158 3158 3158 3158 3159 3160 3163 3167 3171 3174 3179 3180 3182 3183 3185 3186 3187 3189 3191 3193 3195 3196 3199 3201 3203 3206 3208 3211 3213 3215
3159 3159 3162 3164 3165 3168 3169 3167 3166 3165 3166 3167 3165 3166 3156 3155 3155 3155 3154 3156 3158 3163 3166 3171 3176 3179 3182 3183 3185 3185 3186 3188 3190 3192 3194 3196 3197 3200 3201 3204 3207 3209 3212 3214
3156 3157 3158 3161 3164 3166 3167 3166 3165 3164 3165 3165 3162 3164 3155 3154 3153 3152 3151 3152 3153 3157 3162 3167 3172 3175 3177 3181 3183 3184 3186 3186 3189 3191 3193 3195 3197 3199 3200 3202 3205 3208 3210 3212
3153 3153 3156 3158 3161 3162 3164 3165 3165 3165 3165 3161 3160 3161 3154 3153 3151 3151 3150 3149 3150 3153 3157 3162 3167 3171 3174 3177 3182 3184 3185 3187 3188 3191 3193 3194 3196 3198 3199 3201 3202 3205 3208 3210
3151 3151 3152 3154 3156 3159 3160 3162 3161 3161 3161 3158 3158 3156 3152 3150 3149 3149 3148 3147 3147 3149 3153 3158 3163 3167 3171 3175 3179 3182 3184 3187 3188 3190 3192 3193 3195 3196 3198 3199 3201 3203 3205 3207
3146 3147 3148 3150 3153 3157 3156 3158 3159 3159 3159 3159 3155 3152 3148 3147 3146 3148 3147 3146 3147 3148 3150 3154 3159 3163 3168 3171 3175 3178 3179 3184 3186 3188 3190 3192 3193 3194 3196 3198 3200 3201 3203 3205
3143 3145 3144 3146 3149 3151 3152 3154 3156 3156 3156 3154 3151 3149 3147 3145 3143 3146 3146 3146 3145 3145 3147 3149 3154 3159 3164 3168 3172 3175 3178 3180 3182 3185 3186 3188 3190 3192 3193 3195 3197 3198 3201 3201
3139 3142 3143 3142 3142 3145 3147 3148 3151 3152 3153 3148 3148 3147 3145 3144 3143 3145 3145 3145 3144 3143 3145 3148 3151 3155 3159 3163 3168 3171 3174 3176 3178 3181 3183 3185 3188 3189 3191 3193 3195 3196 3197 3198
3132 3136 3137 3138 3140 3140 3142 3143 3144 3147 3149 3148 3148 3147 3145 3143 3143 3144 3144 3144 3142 3142 3144 3146 3148 3152 3155 3159 3160 3167 3171 3173 3176 3178 3180 3183 3184 3186 3188 3190 3193 3194 3195 3195
3128 3130 3132 3132 3136 3135 3136 3137 3138 3141 3142 3144 3146 3144 3143 3142 3141 3143 3144 3143 3142 3142 3144 3145 3147 3150 3154 3156 3160 3164 3168 3171 3173 3174 3176 3179 3181 3183 3186 3187 3188 3189 3191 3192
3125 3123 3123 3123 3126 3130 3131 3132 3134 3136 3139 3140 3141 3141 3141 3140 3140 3142 3143 3143 3142 3143 3144 3146 3148 3151 3153 3156 3160 3163 3166 3168 3169 3171 3173 3175 3177 3179 3181 3183 3184 3184 3185 3187
3120 3118 3119 3118 3120 3123 3125 3127 3129 3130 3133 3136 3137 3137 3138 3139 3139 3140 3142 3143 3144 3144 3145 3147 3148 3151 3153 3156 3159 3161 3163 3164 3166 3168 3170 3172 3172 3173 3175 3177 3178 3178 3180 3181
3113 3113 3113 3113 3115 3117 3118 3121 3124 3126 3128 3130 3133 3134 3136 3136 3137 3137 3140 3142 3144 3145 3146 3147 3148 3150 3153 3155 3157 3159 3160 3162 3163 3166 3167 3168 3168 3168 3169 3170 3172 3173 3174 3175
3107 3108 3110 3110 3111 3113 3115 3114 3117 3120 3122 3126 3127 3130 3131 3133 3134 3135 3138 3141 3143 3145 3146 3148 3149 3150 3152 3154 3156 3157 3158 3160 3162 3163 3164 3165 3165 3166 3166 3166 3167 3166 3167 3168
3101 3103 3105 3105 3107 3107 3109 3108 3110 3114 3116 3119 3123 3125 3126 3129 3131 3133 3136 3139 3141 3143 3146 3147 3148 3149 3151 3152 3154 3156 3158 3159 3160 3161 3161 3161 3161 3161 3161 3161 3161 3160 3160 3160
3095 3097 3099 3101 3101 3103 3104 3105 3105 3109 3113 3116 3118 3121 3122 3124 3128 3131 3133 3137 3140 3142 3144 3146 3147 3148 3149 3151 3152 3154 3156 3156 3157 3157 3157 3157 3156 3155 3154 3154 3153 3153 3154 3154
3087 3091 3095 3097 3097 3094 3099 3103 3105 3109 3110 3112 3114 3117 3119 3121 3124 3126 3130 3133 3137 3140 3142 3144 3145 3147 3149 3150 3151 3152 3153 3153 3153 3152 3151 3150 3149 3148 3148 3147 3147 3147 3147 3148
3077 3081 3086 3089 3090 3091 3095 3100 3104 3108 3112 3109 3112 3113 3114 3117 3122 3125 3127 3130 3135 3138 3140 3142 3144 3145 3147 3148 3148 3149 3148 3147 3146 3146 3145 3144 3143 3142 3142 3141 3140 3139 3139 3139
3076 3075 3078 3084 3087 3088 3090 3094 3099 3105 3106 3105 3107 3109 3111 3113 3119 3122 3124 3127 3131 3134 3137 3139 3142 3143 3145 3145 3145 3145 3144 3143 3142 3140 3139 3139 3138 3137 3136 3134 3133 3132 3131 3131
3074 3071 3070 3075 3080 3082 3086 3089 3093 3096 3098 3100 3103 3106 3108 3112 3115 3119 3121 3124 3128 3132 3135 3137 3139 3140 3141 3142 3142 3142 3140 3139 3137 3136 3135 3133 3132 3131 3130 3129 3127 3126 3125 3124
3065 3066 3067 3070 3071 3076 3080 3084 3087 3092 3094 3095 3099 3103 3105 3109 3113 3116 3119 3121 3124 3128 3131 3134 3135 3137 3138 3138 3138 3137 3136 3135 3134 3132 3130 3128 3127 3125 3123 3122 3121 3120 3119 3118
3062 3063 3065 3066 3067 3070 3073 3077 3081 3087 3089 3091 3094 3099 3102 3105 3109 3113 3116 3118 3121 3125 3127 3130 3132 3133 3134 3134 3134 3134 3133 3131 3130 3128 3126 3124 3122 3120 3118 3117 3115 3114 3113 3112
3057 3057 3062 3064 3062 3066 3070 3071 3074 3080 3085 3087 3090 3094 3098 3102 3105 3109 3112 3115 3118 3121 3124 3126 3128 3130 3131 3130 3131 3131 3129 3128 3126 3125 3123 3121 3119 3115 3113 3111 3110 3108 3107 3106